PAKTES 1A (43529 NORAD) Tracking and Keplerian Element Data

This shows tracking and keplerian element data for the satellite.

Feedback or suggestion? Click here.




ElementValue
Catalog43529
NamePAKTES 1A
Epoch Orbit440
Epoch Day219.80985347
Epoch Year2018
RAAN290.5075
Inclination98.0489
Eccentricity0.002676
Argument of Perigee184.5657
Mean Anonmoly175.5299
Mean Motion14.872358
Decay Rate-6.2E-07
L11 43529U 18056A 18219.80985347 -.00000062 00000-0 -36000-6 0 9993
L22 43529 98.0489 290.5075 0026760 184.5657 175.5299 14.87235800 4402

Live tracking and technical data element details for PAKTES 1A (NORAD 43529). PAKTES 1A can be tracked NOW for your location showing map with azimuth and elevation plus other details from your city location.

Track the satellite on the map from your city or location and see movement details for azimuth, elevation, latitude, longitude, range, height, and movement on the map or in text.







IsCatalogInMostPopularTable: catalog: 43529, numindb: 42
Update: records affected: 1



GetName: 43529 PAKTES 1A

Hit Count: updated at: Sat, 17 Nov 2018 02:51:51 GMT